Location: Unspecified
(43.1300°N, 0.0000°E)
Time: 20:19:44
(UTC+00:00)

Explorer 7 - Visible Passes

Search period start: 04 April 2026 00:00
Search period end: 14 April 2026 00:00
Orbit: 429 x 539 km, 50.2° (Epoch: 29 March)

Date Brightness Start Highest point End Pass type
(mag) Time Alt. Az. Time Alt. Az. Time Alt. Az.
4 Apr 8.4 20:15:55 10° SSW 20:17:34 21° S 20:17:34 21° S visible
5 Apr 7.5 19:48:54 10° SSW 19:52:30 31° SE 19:53:13 29° ESE visible
5 Apr 9.3 21:26:48 10° WSW 21:27:35 15° W 21:27:35 15° W visible
6 Apr 7.6 19:21:51 10° SSW 19:25:24 29° SE 19:28:30 12° E visible
6 Apr 7.6 20:59:38 10° WSW 21:02:51 48° WNW 21:02:51 48° WNW visible
7 Apr 7.1 20:32:28 10° WSW 20:36:29 62° NNW 20:37:45 39° NE visible
7 Apr 9.9 22:11:50 10° WNW 22:12:04 11° WNW 22:12:04 11° WNW visible
8 Apr 7.0 20:05:16 10° WSW 20:09:18 66° NNW 20:12:21 16° NE visible
8 Apr 9.1 21:44:37 10° WNW 21:46:39 22° NW 21:46:39 22° NW visible
9 Apr 7.0 19:38:02 10° WSW 19:42:05 69° NNW 19:46:04 10° ENE visible
9 Apr 8.4 21:17:22 10° WNW 21:20:56 30° N 21:20:58 30° N visible
10 Apr 7.0 19:10:47 10° WSW 19:14:52 73° NNW 19:18:51 10° ENE visible
10 Apr 8.4 20:50:04 10° WNW 20:53:41 30° N 20:55:07 23° NNE visible
10 Apr 9.9 22:29:09 10° NW 22:29:24 11° NW 22:29:24 11° NW visible
11 Apr 8.4 20:22:45 10° WNW 20:26:22 31° N 20:29:08 15° NE visible
11 Apr 9.3 22:01:52 10° NW 22:03:23 19° NW 22:03:23 19° NW visible
12 Apr 8.3 19:55:24 10° WNW 19:59:04 32° N 20:02:40 10° NE visible
12 Apr 8.6 21:34:33 10° NW 21:37:17 28° NNW 21:37:17 28° NNW visible
13 Apr 8.3 19:28:02 10° WNW 19:31:43 32° N 19:35:21 10° NE visible
13 Apr 8.1 21:07:12 10° NW 21:10:49 31° N 21:11:05 31° NNE visible
